KTXEAGLE7 Weather Reports


time (UTC)temp
C
wind
direction
speed
KPH
gust
KPH
rain 1hr
cm
rain 24hr
cm
rain mn
cm
humidity
%
barometer
mb
20260505153021 24 194 17.7 30.6 0.00 0.00 0.00 93 1009.9
20260505151520 23 211 14.5 30.6 0.00 0.00 0.00 94 1009.8
20260505130106 21 182 11.3 16.1 0.00 0.00 0.00 99 1009.7
20260505124558 21 162 8.0 16.1 0.00 0.00 0.00 99 1009.7
20260505123056 21 179 4.8 11.3 0.00 0.00 0.00 99 1009.7
20260505121615 20 172 3.2 8.0 0.00 0.00 0.00 99 1009.2
20260505120053 20 182 6.4 9.7 0.00 0.00 0.00 99 1009.1
20260505114551 20 164 3.2 9.7 0.00 0.00 0.00 99 1008.9
20260505113050 20 156 3.2 8.0 0.00 0.00 0.00 99 1009.0
20260505111549 20 154 4.8 9.7 0.00 0.00 0.00 98 1008.8
20260505101554 20 178 4.8 9.7 0.00 0.00 0.00 98 1009.0
20260505100045 20 163 4.8 8.0 0.00 0.00 0.00 98 1008.8
20260505094543 20 163 3.2 8.0 0.00 0.00 0.00 97 1009.4
20260505093044 20 173 6.4 8.0 0.00 0.00 0.00 97 1009.4
20260505091542 20 164 1.6 4.8 0.00 0.00 0.00 97 1009.2
20260505090055 20 187 1.6 6.4 0.00 0.00 0.00 97 1009.4
20260505084548 20 187 4.8 9.7 0.00 0.00 0.00 97 1009.4
20260505083039 20 165 1.6 8.0 0.00 0.00 0.00 96 1009.7
20260505081542 20 192 1.6 6.4 0.00 0.00 0.00 96 1010.0
20260505080034 20 192 4.8 12.9 0.00 0.00 0.00 96 1010.0
20260505074535 20 172 6.4 11.3 0.00 0.00 0.00 96 1009.8
20260505073037 20 158 6.4 12.9 0.00 0.00 0.00 96 1010.0
20260505071531 20 160 6.4 12.9 0.00 0.00 0.00 95 1010.0
20260505070029 20 168 9.7 17.7 0.00 0.00 0.00 95 1010.1
20260505064526 20 175 9.7 17.7 0.00 0.00 0.00 95 1010.3
20260505063026 20 176 8.0 19.3 0.00 0.00 0.00 95 1010.7
20260505061523 20 169 8.0 16.1 0.00 0.00 0.00 94 1010.6
20260505060029 20 165 8.0 14.5 0.00 0.00 0.00 95 1010.8
20260505054531 20 177 8.0 12.9 0.00 0.00 0.00 94 1011.0
20260505053017 20 192 4.8 11.3 0.00 0.00 0.00 94 1011.1
20260505051515 20 175 4.8 11.3 0.00 0.00 0.00 93 1011.3
20260505041511 20 155 4.8 11.3 0.00 0.00 0.00 91 1011.6
20260505040011 21 170 6.4 12.9 0.00 0.00 0.00 91 1011.4
20260505034509 21 167 8.0 14.5 0.00 0.00 0.00 90 1011.5
20260505033016 21 161 8.0 14.5 0.00 0.00 0.00 89 1011.8
20260505031509 21 160 8.0 16.1 0.00 0.00 0.00 89 1011.8
20260505030008 21 147 9.7 17.7 0.00 0.00 0.00 88 1011.6
20260505024507 21 168 9.7 20.9 0.00 0.00 0.00 88 1011.3
20260505023007 21 170 8.0 14.5 0.00 0.00 0.00 87 1011.3
20260505021507 21 146 8.0 17.7 0.00 0.00 0.00 86 1011.4
20260505020006 21 181 9.7 16.1 0.00 0.00 0.00 86 1011.2
20260505014509 22 163 8.0 14.5 0.00 0.00 0.00 85 1011.2
20260505013006 22 153 8.0 14.5 0.00 0.00 0.00 84 1011.0
20260505011506 22 185 11.3 17.7 0.00 0.00 0.00 82 1010.6
20260505010004 23 159 11.3 20.9 0.00 0.00 0.00 81 1010.9
20260505004505 23 185 8.0 22.5 0.00 0.00 0.00 79 1011.0
20260505003103 23 181 12.9 25.7 0.00 0.00 0.00 78 1010.8
20260505001559 23 173 14.5 25.7 0.00 0.00 0.00 77 1010.8
20260504234613 25 214 16.1 25.7 0.00 0.00 0.00 77 1010.8
20260504233050 25 168 24.1 33.8 0.00 0.00 0.00 74 1011.1
20260504231553 25 194 20.9 33.8 0.00 0.00 0.00 74 1011.2
20260504230044 25 181 19.3 25.7 0.00 0.00 0.00 73 1011.4
20260504224543 25 202 17.7 32.2 0.00 0.00 0.00 74 1011.4
20260504223043 25 178 17.7 35.4 0.00 0.00 0.00 74 1011.5
20260504221544 25 171 16.1 33.8 0.00 0.00 0.00 74 1011.6
20260504220040 25 193 19.3 29.0 0.00 0.00 0.00 72 1011.7
20260504214540 25 173 11.3 27.4 0.00 0.00 0.00 75 1012.0
20260504213036 25 182 17.7 29.0 0.00 0.00 0.00 74 1012.2
20260504211533 25 178 17.7 32.2 0.00 0.00 0.00 75 1012.6
20260504210033 25 170 16.1 29.0 0.00 0.00 0.00 73 1012.8
20260504204608 25 163 20.9 30.6 0.00 0.00 0.00 71 1012.9
20260504203031 25 180 20.9 30.6 0.00 0.00 0.00 70 1012.9
20260504201528 26 171 16.1 27.4 0.00 0.00 0.00 70 1013.1
20260504200033 26 187 17.7 29.0 0.00 0.00 0.00 70 1013.5
20260504194527 25 171 14.5 32.2 0.00 0.00 0.00 72 1013.6
20260504193025 25 198 16.1 29.0 0.00 0.00 0.00 72 1013.7
20260504191521 25 186 16.1 27.4 0.00 0.00 0.00 67 1014.0
20260504190020 25 182 12.9 27.4 0.00 0.00 0.00 71 1014.1
20260504184520 25 196 12.9 27.4 0.00 0.00 0.00 70 1014.2
20260504183018 25 176 12.9 27.4 0.00 0.00 0.00 69 1014.4
20260504181515 25 175 17.7 25.7 0.00 0.00 0.00 69 1014.7
20260504180014 25 188 19.3 27.4 0.00 0.00 0.00 69 1014.6
20260504174512 24 178 12.9 27.4 0.00 0.00 0.00 71 1014.9
20260504173011 24 168 12.9 29.0 0.00 0.00 0.00 71 1015.1
20260504171532 24 182 12.9 24.1 0.00 0.00 0.00 73 1015.1